Weather in Marijampolė

Lithuania     54°33′26″N   23°21′12″E
temp.,
°C
wind,
m/s
gust,
m/s
humid.,
%
clouds,
%
prec.,
mm/h
press.,
hPa
HPBL,
m
27 february, sat
sat2723:00+3wnw7138885 0.0 1018579
02:00+2wnw7139276 0.0 1019381
05:00+2wnw6119336 0.0 1019323
08:00+1nw7149024 0.0 1021497
11:00+3nw712810 0.0 1023701
14:00+5nnw711710 0.0 10251026
17:00+5nw612720 0.0 1026859
20:00+2nw512790 0.0 1028347
28 february, sun
sun2823:000wnw511910 0.0 1029305
02:000wnw5109316 0.0 1030331
05:00+1wnw5119090 0.0 1028341
08:00+1w6108687 0.0 1027279
11:00+4wnw8137892 0.0 1026543
14:00+6wnw8127984 0.0 1026795
17:00+5nw61282100 0.0 1025637
20:00+3nw499187 0.0 1028233
1 march, mon
mon123:00+2nw469372 0.0 1029191
02:00+1wnw369645 0.0 1030130
05:00+1wnw48964 0.0 1030185
08:00+1wnw48954 0.0 1031195
11:00+6nw59790 0.0 1031435
14:00+8wnw59670 0.0 1031612
17:00+8w5107416 0.0 1029388
20:00+5w6157939 0.0 1029517
2 march, tue
tue223:00+3wnw614893 0.0 1029455
02:00+2wnw6119515 0.0 1030334
05:00+2wnw599673 0.0 1029274
08:00+1w479672 0.0 1030185
11:00+5wnw46826 0.0 1030292
14:00+8w57733 0.0 1029486
17:00+7wnw58800 0.0 1028575
20:00+5wnw698629 0.0 1029520
3 march, wed
wed323:00+2nw379366 0.0 1030251
02:00+1nw359469 0.0 1030229
05:000wnw239586 0.0 102970
08:00+1w239486 0.0 1029198
11:00+3wsw228493 0.0 1029347
14:00+6wsw136878 0.0 1027578
17:00+5w34740 0.0 1025396
20:00+2w23929 0.0 102479